Location: Valdosta
(30.8330°N, 83.2790°W)
Time: 06:12:33
(UTC-04:00)

Amateur Radio Satellites - All Passes

Search period start: 22 September 2014 05:42
Search period end: 23 September 2014 05:42
Location: Valdosta, 30.8330°N, 83.2790°W

Satellite Date Start Highest point End Downlink Frequencies (MHz)
Time Altitude Azimuth
JAS-2 22 Sep 05:45:44 05:47:24 11° 94° (E) 05:49:06 435.800 - 435.900 CW/SSB, 435.910 FM
TMSAT-1 22 Sep 05:55:09 05:58:11 16° 294° (WNW) 06:01:13 436.925 FM
AO-7 22 Sep 06:19:40 06:27:54 73° 289° (WNW) 06:36:08 29.400 - 29.500 MHz
RS-15 22 Sep 06:23:00 06:32:25 32° 311° (NW) 06:41:49 29.354 - 29.394 USB, Beacon 29.352 USB
PANSAT 22 Sep 06:26:40 06:28:41 14° 204° (SSW) 06:30:42 not established
STRAND 1 22 Sep 06:28:32 06:31:10 14° 66° (ENE) 06:33:48 ?
Hamsat 22 Sep 06:30:11 06:33:01 17° 95° (E) 06:35:48 145.90 MHz
KITSAT 1 22 Sep 06:59:09 07:05:15 24° 256° (WSW) 07:11:21 435.175 FM
Uosat F 22 Sep 07:10:10 07:13:11 16° 293° (WNW) 07:16:12 435.120 FM
JAS-2 22 Sep 07:26:17 07:32:41 89° 283° (WNW) 07:39:55 435.800 - 435.900 CW/SSB, 435.910 FM
SO-50 22 Sep 07:28:06 07:32:41 42° 59° (ENE) 07:37:17 436.795 FM
MaSat-1 22 Sep 07:38:53 07:43:13 31° 105° (ESE) 07:47:35 437.345 MHz
SO-67 22 Sep 07:43:09 07:44:45 13° 94° (E) 07:46:21 435.3500 MHz FM
STRAND 1 22 Sep 08:04:55 08:09:51 52° 259° (W) 08:14:49 ?
Hamsat 22 Sep 08:05:22 08:08:56 27° 288° (WNW) 08:12:28 145.90 MHz
AO-7 22 Sep 08:16:32 08:19:15 12° 306° (NW) 08:21:59 29.400 - 29.500 MHz
UOSAT-12 22 Sep 08:51:18 08:55:06 24° 54° (NE) 08:58:49 437.025 FM, 437.400 FM
SO-50 22 Sep 09:09:47 09:12:54 17° 251° (WSW) 09:16:01 436.795 FM
SO-67 22 Sep 09:14:57 09:17:43 23° 286° (WNW) 09:20:29 435.3500 MHz FM
JAS-2 22 Sep 09:15:00 09:17:06 12° 295° (WNW) 09:19:16 435.800 - 435.900 CW/SSB, 435.910 FM
MaSat-1 22 Sep 09:15:50 09:19:53 25° 298° (WNW) 09:23:55 437.345 MHz
ISS 22 Sep 09:43:29 09:46:46 55° 44° (NE) 09:50:01 145.800 FM
HO-68 22 Sep 09:51:39 09:58:10 36° 99° (E) 10:04:37 435.675 MHz FM
UKube-1 22 Sep 10:08:30 10:11:18 17° 96° (E) 10:14:05 145.840 MHz, 145.915 MHz
UOSAT-12 22 Sep 10:31:08 10:35:11 29° 249° (WSW) 10:39:10 437.025 FM, 437.400 FM
RS-15 22 Sep 11:08:21 11:10:48 11° 26° (NNE) 11:13:16 29.354 - 29.394 USB, Beacon 29.352 USB
FUNcube-1 22 Sep 11:21:30 11:25:45 36° 98° (E) 11:29:54 145.950 - 145.970 MHz USB
Oscar 11 22 Sep 11:23:34 11:27:54 75° 283° (WNW) 11:32:12 145.825 FM, Beacon 2401.500 USB
HO-68 22 Sep 11:39:22 11:45:41 35° 293° (WNW) 11:52:00 435.675 MHz FM
UKube-1 22 Sep 11:43:38 11:47:29 31° 288° (WNW) 11:51:19 145.840 MHz, 145.915 MHz
Sapphire 22 Sep 11:47:15 11:52:26 51° 110° (ESE) 11:57:40 437.095 MHz 1200 baud AX-25 AFSK
ZACube-1 22 Sep 12:04:16 12:08:50 66° 284° (WNW) 12:13:19 437.345 MHz
PCSat 22 Sep 12:13:42 12:19:05 81° 294° (WNW) 12:24:32 145.825 MHz
FUNcube-1 22 Sep 12:58:56 13:01:46 16° 291° (WNW) 13:04:34 145.950 - 145.970 MHz USB
JAS-1B 22 Sep 13:15:02 13:19:09 15° 64° (ENE) 13:22:58 435.800 - 435.900 CW/SSB
RS-15 22 Sep 13:16:37 13:27:09 44° 54° (NE) 13:38:02 29.354 - 29.394 USB, Beacon 29.352 USB
Oscar 19 22 Sep 13:20:20 13:23:40 18° 67° (ENE) 13:27:01 437.125 CW, 437.150 USB
Sapphire 22 Sep 13:32:30 13:36:06 18° 306° (NW) 13:39:44 437.095 MHz 1200 baud AX-25 AFSK
AO-27 22 Sep 13:47:16 13:49:29 13° 65° (ENE) 13:51:42 436.795 MHz FM
AO-Echo 22 Sep 13:49:15 13:51:35 14° 67° (ENE) 13:53:54 ?
Oscar 16 22 Sep 13:57:51 14:02:46 45° 73° (ENE) 14:07:41 437.025 USB, Beacon 2401.1428
ITAMSAT 1 22 Sep 14:47:32 14:52:34 56° 74° (ENE) 14:57:37 435.822 SSB
Uribyol 2 22 Sep 14:50:51 14:55:56 65° 75° (ENE) 15:01:04 436.500 FM
Gurwin Techsat 1B 22 Sep 14:54:36 14:59:07 29° 70° (ENE) 15:03:38 435.225 FM
Oscar 19 22 Sep 14:57:41 15:02:36 44° 260° (W) 15:07:34 437.125 CW, 437.150 USB
JAS-1B 22 Sep 15:00:14 15:09:07 88° 256° (WSW) 15:16:33 435.800 - 435.900 CW/SSB
AO-27 22 Sep 15:23:20 15:28:25 60° 259° (WSW) 15:33:32 436.795 MHz FM
AO-7 22 Sep 15:23:49 15:28:40 17° 57° (ENE) 15:33:30 29.400 - 29.500 MHz
AO-Echo 22 Sep 15:25:23 15:29:56 45° 260° (W) 15:34:27 ?
RS-15 22 Sep 15:28:58 15:39:25 46° 251° (WSW) 15:50:21 29.354 - 29.394 USB, Beacon 29.352 USB
TMSAT-1 22 Sep 15:28:59 15:34:01 47° 73° (ENE) 15:39:03 436.925 FM
Oscar 16 22 Sep 15:39:04 15:42:14 16° 266° (W) 15:45:26 437.025 USB, Beacon 2401.1428
ITAMSAT 1 22 Sep 16:30:07 16:32:18 13° 267° (W) 16:34:30 435.822 SSB
Gurwin Techsat 1B 22 Sep 16:34:35 16:38:58 26° 263° (W) 16:43:22 435.225 FM
Uribyol 2 22 Sep 16:34:46 16:35:45 11° 267° (W) 16:36:43 436.500 FM
Uosat F 22 Sep 16:38:09 16:42:39 35° 72° (ENE) 16:47:09 435.120 FM
JAS-1B 22 Sep 16:56:19 16:59:50 13° 265° (W) 17:03:09 435.800 - 435.900 CW/SSB
Saudisat 1A 22 Sep 17:02:20 17:06:42 73° 298° (WNW) 17:11:07 436.775 MHz
TMSAT-1 22 Sep 17:10:55 17:14:05 16° 266° (W) 17:17:16 436.925 FM
AO-7 22 Sep 17:12:03 17:20:23 86° 253° (WSW) 17:28:44 29.400 - 29.500 MHz
KITSAT 1 22 Sep 17:35:17 17:37:49 12° 100° (E) 17:40:20 435.175 FM
JAS-2 22 Sep 17:36:14 17:39:30 17° 67° (ENE) 17:42:45 435.800 - 435.900 CW/SSB, 435.910 FM
MaSat-1 22 Sep 17:38:19 17:40:07 14° 57° (ENE) 17:41:48 437.345 MHz
OPAL 22 Sep 17:56:09 18:01:01 43° 101° (ESE) 18:05:47 ?
Uosat F 22 Sep 18:17:52 18:21:26 20° 264° (W) 18:25:01 435.120 FM
Hamsat 22 Sep 18:52:12 18:56:33 80° 258° (WSW) 19:00:55 145.90 MHz
AO-7 22 Sep 19:10:56 19:13:56 12° 267° (W) 19:16:57 29.400 - 29.500 MHz
MaSat-1 22 Sep 19:14:22 19:16:43 18° 257° (WSW) 19:18:52 437.345 MHz
JAS-2 22 Sep 19:19:19 19:24:18 40° 261° (W) 19:29:09 435.800 - 435.900 CW/SSB, 435.910 FM
KITSAT 1 22 Sep 19:23:57 19:32:02 85° 114° (ESE) 19:40:09 435.175 FM
OPAL 22 Sep 19:36:08 19:39:29 18° 295° (WNW) 19:42:48 ?
SO-67 22 Sep 19:41:52 19:45:07 40° 76° (ENE) 19:48:23 435.3500 MHz FM
HO-68 22 Sep 20:17:09 20:20:59 15° 60° (ENE) 20:24:49 435.675 MHz FM
STRAND 1 22 Sep 20:20:51 20:26:01 84° 103° (ESE) 20:31:10 ?
Sapphire 22 Sep 20:42:26 20:45:15 14° 52° (NE) 20:48:04 437.095 MHz 1200 baud AX-25 AFSK
PCSat 22 Sep 21:07:47 21:12:17 26° 58° (ENE) 21:16:45 145.825 MHz
KITSAT 1 22 Sep 21:22:56 21:28:19 19° 312° (NW) 21:33:45 435.175 FM
SO-50 22 Sep 21:37:54 21:42:08 46° 114° (ESE) 21:46:28 436.795 FM
HO-68 22 Sep 22:00:40 22:07:48 81° 255° (WSW) 22:14:58 435.675 MHz FM
Oscar 11 22 Sep 22:13:08 22:17:13 41° 74° (ENE) 22:21:19 145.825 FM, Beacon 2401.500 USB
FUNcube-1 22 Sep 22:13:51 22:16:29 16° 68° (ENE) 22:19:08 145.950 - 145.970 MHz USB
Sapphire 22 Sep 22:23:44 22:29:08 67° 248° (WSW) 22:34:29 437.095 MHz 1200 baud AX-25 AFSK
UKube-1 22 Sep 22:33:05 22:37:24 74° 258° (WSW) 22:41:44 145.840 MHz, 145.915 MHz
PCSat 22 Sep 22:50:51 22:55:39 33° 252° (WSW) 23:00:26 145.825 MHz
ZACube-1 22 Sep 22:55:06 22:59:20 49° 75° (ENE) 23:03:41 437.345 MHz
UOSAT-12 22 Sep 22:57:29 23:01:05 23° 110° (ESE) 23:04:45 437.025 FM, 437.400 FM
SO-50 22 Sep 23:20:20 23:22:55 15° 309° (NW) 23:25:33 436.795 FM
PANSAT 22 Sep 23:21:15 23:23:57 18° 158° (SSE) 23:26:38 not established
FUNcube-1 22 Sep 23:48:28 23:52:29 36° 262° (W) 23:56:38 145.950 - 145.970 MHz USB
Oscar 11 22 Sep 23:51:41 23:53:31 12° 266° (W) 23:55:21 145.825 FM, Beacon 2401.500 USB
ZACube-1 23 Sep 00:35:00 00:35:59 11° 268° (W) 00:36:58 437.345 MHz
UOSAT-12 23 Sep 00:37:03 00:41:02 29° 304° (NW) 00:45:06 437.025 FM, 437.400 FM
ISS 23 Sep 00:45:41 00:48:27 24° 128° (SE) 00:51:13 145.800 FM
PANSAT 23 Sep 01:00:04 01:03:45 45° 169° (S) 01:07:26 not established
AO-40 23 Sep 01:11:54 02:30:27 21° 239° (WSW) 04:51:40 Beacon 2401.320
Saudisat 1A 23 Sep 01:35:02 01:38:15 19° 54° (NE) 01:41:26 436.775 MHz
Oscar 16 23 Sep 02:15:42 02:19:53 25° 97° (E) 02:24:03 437.025 USB, Beacon 2401.1428
ISS 23 Sep 02:22:25 02:25:05 22° 322° (NW) 02:27:46 145.800 FM
PANSAT 23 Sep 02:39:58 02:43:46 61° 182° (S) 02:47:33 not established
JAS-1B 23 Sep 02:52:41 02:57:33 29° 98° (E) 03:02:39 435.800 - 435.900 CW/SSB
ITAMSAT 1 23 Sep 03:06:18 03:10:56 32° 98° (E) 03:15:32 435.822 SSB
Uribyol 2 23 Sep 03:09:25 03:14:14 37° 99° (E) 03:19:01 436.500 FM
Saudisat 1A 23 Sep 03:13:54 03:17:51 32° 248° (WSW) 03:21:46 436.775 MHz
Oscar 19 23 Sep 03:14:39 03:19:48 79° 284° (WNW) 03:24:55 437.125 CW, 437.150 USB
Gurwin Techsat 1B 23 Sep 03:16:58 03:20:33 18° 95° (E) 03:24:07 435.225 FM
KITSAT 1 23 Sep 03:25:15 03:30:09 17° 46° (NE) 03:35:01 435.175 FM
RS-15 23 Sep 03:33:16 03:43:43 48° 109° (ESE) 03:53:54 29.354 - 29.394 USB, Beacon 29.352 USB
AO-Echo 23 Sep 03:37:19 03:42:17 86° 103° (ESE) 03:47:23 ?
AO-27 23 Sep 03:41:49 03:47:03 78° 103° (ESE) 03:52:16 436.795 MHz FM
TMSAT-1 23 Sep 03:50:44 03:55:19 29° 97° (E) 03:59:53 436.925 FM
Oscar 16 23 Sep 03:54:44 03:59:08 29° 290° (WNW) 04:03:32 437.025 USB, Beacon 2401.1428
PANSAT 23 Sep 04:20:11 04:23:44 36° 194° (SSW) 04:27:17 not established
JAS-1B 23 Sep 04:43:29 04:48:08 27° 291° (WNW) 04:52:57 435.800 - 435.900 CW/SSB
ITAMSAT 1 23 Sep 04:46:05 04:50:12 24° 291° (WNW) 04:54:18 435.822 SSB
Uribyol 2 23 Sep 04:49:35 04:53:24 21° 292° (WNW) 04:57:12 436.500 FM
Uosat F 23 Sep 04:52:18 04:55:32 17° 95° (E) 04:58:44 435.120 FM
Gurwin Techsat 1B 23 Sep 04:55:38 05:00:36 42° 288° (WNW) 05:05:33 435.225 FM
OPAL 23 Sep 05:05:36 05:10:27 42° 70° (ENE) 05:15:20 ?
KITSAT 1 23 Sep 05:18:30 05:26:37 87° 65° (ENE) 05:34:41 435.175 FM
AO-7 23 Sep 05:20:08 05:28:01 46° 102° (ESE) 05:35:51 29.400 - 29.500 MHz
TMSAT-1 23 Sep 05:30:43 05:35:04 26° 290° (WNW) 05:39:24 436.925 FM
